Bologna, Italy

2:21 AM CEST on June 22, 2018 (GMT +0200)
Borgo Panigale

Weather History for LIPE - November, 2017

Change the Weather History Date:

Monday, November 13, 2017

  Actual Average Record
Temperature  
Mean Temperature 36 °F -  
Max Temperature 41 °F 48 °F 68 °F (1996)
Min Temperature 32 °F 36 °F 32 °F (2017)
Degree Days  
Heating Degree Days 28    
Moisture  
Dew Point 38 °F    
Average Humidity 95    
Maximum Humidity 100    
Minimum Humidity 87    
Precipitation  
Precipitation 1.65 in 0.10 in - ()
Sea Level Pressure  
Sea Level Pressure 29.56 in    
Wind  
Wind Speed 9 mph ()    
Max Wind Speed 20 mph    
Max Gust Speed -    
Visibility 2.6 miles    
Events Fog , Rain , Snow , Thunderstorm    
Averages and records for this station are not official NWS values.
T = Trace of Precipitation, MM = Missing Value Source: Averaged Metar Reports

Daily Weather History Graph

Daily Weather History Graph

Search for Another Location

Airport or City:

Astronomy

Nov. 13, 2017 Rise Set
Actual Time 7:08 AM CET 4:49 PM CET
Civil Twilight 6:37 AM CET 5:20 PM CET
Nautical Twilight 6:02 AM CET 5:55 PM CET
Astronomical Twilight 5:27 AM CET 6:29 PM CET
Moon 1:35 AM CET (11/13) 2:46 PM CET (11/13)
Length of Visible Light 10h 43m
Length of Day
9h 40m
Waning Crescent, 24% of the Moon is Illuminated
Nov 13
Waning Crescent
Nov 18
New
Nov 26
First Quarter
Dec 3
Full
Dec 10
Last Quarter

Hourly Weather History & Observations

Time (CET) Temp. Windchill Dew Point Humidity Pressure Visibility Wind Dir Wind Speed Gust Speed Precip Events Conditions
12:20 AM 48.2 °F - 48.2 °F 100% 29.36 in 0.3 mi West 13.8 mph - N/A Fog Light Drizzle
12:50 AM 48.2 °F - 46.4 °F 93% 29.39 in 0.5 mi WNW 19.6 mph - N/A Fog , Rain Rain
1:00 AM 47 °F - 47 °F 98% 29.39 in 0 mi WNW 19.6 mph - - Rain Rain
1:20 AM 46.4 °F 40.7 °F 46.4 °F 100% 29.36 in 0.9 mi NW 12.7 mph - N/A Rain Rain
1:50 AM 46.4 °F 40.7 °F 44.6 °F 93% 29.39 in 2.5 mi West 12.7 mph - N/A Rain Light Rain
2:20 AM 46.4 °F 41.1 °F 44.6 °F 93% 29.39 in 2.5 mi WNW 11.5 mph - N/A Rain Light Rain
2:50 AM 46.4 °F 41.5 °F 44.6 °F 93% 29.39 in 2.5 mi West 10.4 mph - N/A Rain Light Rain
3:20 AM 44.6 °F 40.7 °F 44.6 °F 100% 29.36 in 2.5 mi NNW 6.9 mph - N/A Rain Rain
3:50 AM 44.6 °F 43.1 °F 44.6 °F 100% 29.39 in 3.7 mi NW 3.5 mph - N/A Rain Rain
4:00 AM 45 °F - 43 °F 92% 29.39 in 4 mi WNW 4.6 mph - - Rain Rain
4:20 AM 44.6 °F 41.4 °F 42.8 °F 93% 29.39 in 3.7 mi WNW 5.8 mph - N/A Rain Light Rain
4:50 AM 44.6 °F 39.7 °F 41.0 °F 87% 29.39 in 3.7 mi West 9.2 mph - N/A Rain Light Rain
5:20 AM 44.6 °F 39.7 °F 41.0 °F 87% 29.36 in 3.7 mi WNW 9.2 mph - N/A Rain Light Rain
5:50 AM 42.8 °F 39.3 °F 41.0 °F 93% 29.39 in 2.5 mi NW 5.8 mph - N/A Rain Rain
6:20 AM 42.8 °F 38.0 °F 39.2 °F 87% 29.42 in 2.5 mi NNW 8.1 mph - N/A Rain Rain
6:50 AM 41.0 °F 37.1 °F 39.2 °F 93% 29.44 in 3.7 mi North 5.8 mph - N/A Rain Rain
7:20 AM 41.0 °F 38.0 °F 39.2 °F 93% 29.44 in 3.7 mi NNW 4.6 mph - N/A Rain Rain
7:50 AM 41.0 °F 34.7 °F 39.2 °F 93% 29.44 in 3.1 mi North 10.4 mph - N/A Rain Rain
8:20 AM 41.0 °F 34.7 °F 37.4 °F 87% 29.44 in 3.1 mi North 10.4 mph - N/A Rain Rain
8:50 AM 41.0 °F 36.4 °F 37.4 °F 87% 29.47 in 3.1 mi NNW 6.9 mph - N/A Rain Rain
9:20 AM 39.2 °F 32.5 °F 37.4 °F 93% 29.47 in 3.1 mi NNW 10.4 mph - N/A Rain Rain
9:50 AM 37.4 °F 29.3 °F 35.6 °F 93% 29.50 in 2.5 mi North 12.7 mph - N/A Rain Rain
10:00 AM 36 °F - 34 °F 89% 29.50 in 2 mi North 13.8 mph - - Rain Rain
10:20 AM 33.8 °F 27.0 °F 33.8 °F 100% 29.53 in 2.2 mi NNW 8.1 mph - N/A Rain , Snow Snow
10:50 AM 32.0 °F 24.8 °F 32.0 °F 100% 29.53 in 0.6 mi NW 8.1 mph - N/A Snow Snow
11:20 AM 32.0 °F 23.0 °F 32.0 °F 100% 29.53 in 0.8 mi WNW 11.5 mph - N/A Snow , Thunderstorm Thunderstorms and Snow
11:50 AM 32.0 °F 24.2 °F 32.0 °F 100% 29.53 in 0.6 mi WNW 9.2 mph - N/A Snow , Thunderstorm Thunderstorms and Snow
12:20 PM 32.0 °F 26.4 °F 32.0 °F 100% 29.56 in 0.6 mi NW 5.8 mph - N/A Snow Snow
12:50 PM 32.0 °F 22.5 °F 32.0 °F 100% 29.56 in 0.6 mi WNW 12.7 mph - N/A Snow Snow
1:00 PM 33 °F - 32 °F 94% 29.56 in 1 mi WNW 11.5 mph - - Snow Snow
1:20 PM 32.0 °F 23.0 °F 32.0 °F 100% 29.56 in 0.6 mi WNW 11.5 mph - N/A Snow Snow
1:50 PM 32.0 °F 23.0 °F 32.0 °F 100% 29.56 in 0.6 mi West 11.5 mph - N/A Snow Snow
2:20 PM 32.0 °F 23.6 °F 32.0 °F 100% 29.59 in 0.9 mi West 10.4 mph - N/A Snow Light Snow
2:50 PM 32.0 °F 24.8 °F 32.0 °F 100% 29.59 in 0.9 mi West 8.1 mph - N/A Snow Light Snow
3:20 PM 33.8 °F 27.0 °F 32.0 °F 93% 29.59 in 1.6 mi WSW 8.1 mph - N/A Rain , Snow Light Rain
3:50 PM 33.8 °F 26.4 °F 33.8 °F 100% 29.62 in 1.9 mi West 9.2 mph - N/A Rain Light Rain
4:00 PM 34 °F - 34 °F 99% 29.62 in 3 mi WSW 9.2 mph - - Rain Light Rain
4:20 PM 35.6 °F 29.2 °F 33.8 °F 93% 29.62 in 3.1 mi WSW 8.1 mph - N/A Rain Light Rain
4:50 PM 35.6 °F 31.7 °F 35.6 °F 100% 29.65 in 3.7 mi WSW 4.6 mph - N/A Rain Light Rain
5:20 PM 37.4 °F 32.8 °F 35.6 °F 93% 29.65 in 5.0 mi NW 5.8 mph - N/A   Light Drizzle
5:50 PM 37.4 °F 32.8 °F 37.4 °F 100% 29.68 in 5.0 mi NNW 5.8 mph - N/A Rain Light Rain
6:20 PM 39.2 °F 35.0 °F 37.4 °F 93% 29.71 in 3.7 mi North 5.8 mph - N/A Rain Rain
6:50 PM 39.2 °F 35.0 °F 37.4 °F 93% 29.71 in 3.1 mi NW 5.8 mph - N/A Rain Rain
7:00 PM 39 °F - 38 °F 94% 29.71 in 3 mi NNW 5.8 mph - - Rain Rain
7:20 PM 39.2 °F 35.9 °F 37.4 °F 93% 29.74 in 3.1 mi NW 4.6 mph - N/A Rain Rain
7:50 PM 41.0 °F 35.8 °F 39.2 °F 93% 29.74 in 3.7 mi North 8.1 mph - N/A Rain Light Rain
8:20 PM 41.0 °F 35.2 °F 37.4 °F 87% 29.77 in 4.3 mi NNE 9.2 mph - N/A Rain Light Rain
8:50 PM 41.0 °F 36.4 °F 37.4 °F 87% 29.77 in 3.7 mi North 6.9 mph - N/A Rain Light Rain
9:20 PM 37.4 °F 30.8 °F 35.6 °F 93% 29.77 in 3.1 mi WNW 9.2 mph - N/A Rain Rain
9:50 PM 39.2 °F 32.5 °F 37.4 °F 93% 29.77 in 3.1 mi West 10.4 mph - N/A Rain Light Rain
10:00 PM 38 °F - 37 °F 96% 29.80 in 3 mi West 8.1 mph - - Rain Light Rain
10:20 PM 39.2 °F 34.2 °F 37.4 °F 93% 29.80 in 3.1 mi West 6.9 mph - N/A Rain Light Rain
10:50 PM 39.2 °F - 37.4 °F 93% 29.80 in 3.1 mi Variable 2.3 mph - N/A Rain Light Rain
11:20 PM 39.2 °F 33.6 °F 37.4 °F 93% 29.80 in 4.3 mi West 8.1 mph - N/A Rain Light Rain
11:50 PM 39.2 °F 37.0 °F 37.4 °F 93% 29.83 in 5.0 mi WSW 3.5 mph - N/A Rain Light Rain